Theta_e
301 304 304 306 307 306 303 303 305 305 305 305 306 305 306 305 305 305 304 303 304 302
295 297 297 296 297 296 297 298 300 300 299 300 300 298 298 299 298 298 298 297 297 296
292 293 293 293 293 293 294 297 296 296 295 295 294 294 295 295 293 293 294 293 291 291
289 289 290 289 290 291 293 294 293 292 292 291 291 292 291 291 291 289 288 288 287 287
286 287 286 286 287 288 288 290 289 289 289 288 288 288 288 287 286 286 285 285 285 283
283 283 283 284 284 285 286 286 286 286 285 285 284 284 284 285 284 283 283 282 281 281
281 281 281 282 282 283 284 284 283 283 283 284 283 283 283 282 281 281 281 281 281 281
281 280 280 281 281 281 282 282 283 282 282 281 281 281 281 281 280 279 279 280 280 280
279 279 280 280 279 279 279 279 280 279 280 279 280 284 283 281 280 279 279 278 278 278
279 279 279 279 278 278 278 278 278 278 279 279 280 283 283 281 279 279 278 277 278 277
279 278 278 277 277 276 277 277 277 277 279 279 280 282 282 280 278 277 277 276 276 276
279 278 277 277 276 276 276 276 276 278 278 278 279 282 281 279 277 276 275 276 275 276
279 278 277 276 275 276 276 276 277 277 277 277 278 280 280 278 277 275 275 275 275 276
277 277 276 275 275 275 275 275 274 274 274 275 277 278 279 278 277 276 275 275 273 275
Wind_Speed
3 2 2 3 3 4 3 4 3 5 5 6 5 5 5 4 4 4 4 5 4 4
4 4 4 4 4 4 5 5 6 6 7 6 6 6 6 4 5 5 5 6 6 5
5 5 5 5 6 6 5 7 7 7 6 6 6 6 6 6 6 7 5 5 7 5
5 5 5 6 5 5 6 7 7 7 7 7 6 6 7 7 8 9 7 6 7 7
5 5 6 5 5 5 6 6 6 6 7 7 6 6 7 8 6 8 7 7 7 8
5 5 6 5 5 6 6 6 6 6 7 7 6 6 5 7 8 8 7 7 8 7
5 6 6 6 5 6 5 7 6 6 6 7 6 7 6 7 8 8 8 8 7 7
5 5 6 6 6 6 6 6 7 8 7 7 6 4 6 7 8 9 9 8 8 8
6 5 5 7 7 7 7 7 7 7 7 6 4 12 12 9 8 9 9 9 8 7
9 8 7 7 8 8 8 8 7 7 7 7 6 13 13 13 7 8 8 7 7 7
10 10 8 8 8 8 7 9 9 8 7 7 6 13 14 14 8 8 8 7 7 6
12 12 12 11 10 8 8 8 7 8 7 7 7 12 13 10 7 8 8 7 6 5
13 12 12 11 11 8 8 8 7 8 6 7 7 11 10 8 5 7 6 8 7 5
13 13 12 11 8 10 9 8 8 7 5 5 6 7 10 9 5 5 5 6 5 3
Wind_Direction
115 163 173 177 171 166 154 137 114 102 99 102 102 101 99 102 92 72 73 87 89 100
108 124 133 127 126 125 116 117 105 100 103 97 99 100 98 94 88 84 67 63 64 63
124 117 113 102 100 102 98 106 109 103 94 93 89 88 95 95 82 90 69 79 71 74
109 99 93 96 97 104 104 113 108 107 104 96 96 99 98 91 95 96 95 81 91 76
113 111 106 104 104 96 92 84 101 105 105 106 97 95 107 114 112 111 105 97 92 77
133 126 120 118 118 115 116 106 98 103 105 108 105 104 95 105 105 102 103 103 99 102
154 147 139 129 117 110 109 111 106 98 104 104 109 110 108 106 104 98 93 87 83 84
155 142 134 129 124 116 109 102 112 110 105 111 112 115 116 114 113 112 107 94 88 75
145 148 150 136 132 122 115 113 111 107 110 105 105 126 123 118 118 115 116 115 107 93
159 162 160 144 137 137 136 129 124 123 126 122 122 133 129 125 116 116 115 119 124 111
169 160 155 153 150 144 146 144 141 136 133 129 134 140 136 128 120 116 111 109 105 112
173 165 165 165 158 152 147 143 143 139 136 133 135 148 144 134 126 119 116 111 106 113
171 169 168 162 159 155 151 147 146 139 131 132 134 149 151 140 136 132 134 129 120 101
170 166 162 152 151 150 149 143 137 131 120 104 113 136 150 144 141 136 148 142 137 141